sat.trackr.live / text

‹ back to catalog

STARLINK-11260 [DTC]

NORAD 60997 · 2024-158H

PAYLOAD ACTIVE UNKNOWN

§ Identity

Operator
Country
US
Launch date
2024-09-05
Launch site
AFETR
Launch vehicle
Mass (kg)
RCS (m²)

Purposes: comms

External: N2YO · Heavens-Above · Gunter

§ Orbital elements

Epoch: 2026-09-21T13:02:20.740704Z

Period
91.74 min
Inclination
53.1595°
Eccentricity
0.0000830
Mean motion
15.69693795 rev/d
Perigee alt
359.2 km
Apogee alt
360.3 km
Semi-major
6,737.9 km
B*
-2.2578e-5
RAAN
13.6136°
Arg perigee
59.1314°
Mean anomaly
300.9786°
Rev number
11,871

§ Raw data

STARLINK-11260 [DTC]1 60997U 24158H   26264.54329561 -.00003320  00000+0 -22578-4 0  99932 60997  53.1595  13.6136 0000830  59.1314 300.9786 15.69693795118716

JSON: /api/v1/satellites/60997 · /tle

For live sub-satellite position, see the globe view (requires WebGL).

§ Visibility from observer

Set your observer location to see the next 7 days of passes ≥ 10°. The values pass through the URL so the page stays shareable.

No JS? Fill the form by hand. The geolocation button needs JavaScript.